Regional Weather Roundup
Issued by NWS

Home | Current Version | Previous Version | Graphics & Text | Print | Product List | Glossary On
Versions: 1 2 3 4 5 6 7 8 9 10 11 12 13 14 15 16 17 18 19 20 21 22 23 24 25 26 27 28 29 30 31 32 33 34 35 36 37 38 39 40 41 42 43 44 45 46 47 48 49 50
000
ASUS43 KBIS 261402
RWRND

NORTH DAKOTA REGIONAL WEATHER ROUNDUP
NATIONAL WEATHER SERVICE BISMARCK ND
900 AM CDT FRI AUG 26 2016

NOTE: "FAIR" INDICATES FEW OR NO CLOUDS BELOW 12,000 FEET WITH NO
SIGNIFICANT WEATHER AND/OR OBSTRUCTIONS TO VISIBILITY.


NDZ001>003-009>011-017-261500-
NORTHWEST NORTH DAKOTA

CITY           SKY/WX    TMP DP  RH WIND       PRES   REMARKS
WILLISTON      CLOUDY    54  42  64 S5        30.06S
MINOT          MOSUNNY   61  46  57 SW10      30.04R
MINOT AFB      SUNNY     60  45  57 SW7       30.03S
$$

NDZ018>021-031>035-040>046-261500-
SOUTHWEST NORTH DAKOTA

CITY           SKY/WX    TMP DP  RH WIND       PRES   REMARKS
BISMARCK       CLOUDY    53  49  86 CALM      30.12S
DICKINSON      PTSUNNY   54  44  69 SW6       30.09S
GARRISON         N/A     57  50  77 SW6       30.08R
HETTINGER ARPT PTSUNNY   52  45  77 CALM      30.13S
$$

NDZ004>008-012>016-024-026-027-054-261500-
NORTHEAST NORTH DAKOTA

CITY           SKY/WX    TMP DP  RH WIND       PRES   REMARKS
GRAND FORKS    MOSUNNY   57  50  77 S3        30.07S
GRND FRKS AFB  SUNNY     61  52  70 SW5       30.07R
$$

NDZ022-023-025-028>030-036>039-047>053-261500-
SOUTHEAST NORTH DAKOTA

CITY           SKY/WX    TMP DP  RH WIND       PRES   REMARKS
FARGO          SUNNY     60  50  69 S10       30.12R
JAMESTOWN      SUNNY     58  51  78 SW8       30.11R
$$





USA.gov is the U.S. government's official web portal to all federal, state and local government web resources and services.